Weather History for Fort Drum, NY

Change the Weather History Date:

Thursday, March 20, 2014

  Actual Average Record
Temperature  
Mean Temperature 34 °F -  
Max Temperature 41 °F 34 °F 77 °F (2012)
Min Temperature 28 °F 20 °F 10 °F (2006)
Degree Days  
Heating Degree Days 30    
Moisture  
Dew Point 32 °F    
Average Humidity 97    
Maximum Humidity 100    
Minimum Humidity 81    
Precipitation  
Precipitation 0.08 in - - ()
Sea Level Pressure  
Sea Level Pressure 29.67 in    
Wind  
Wind Speed 18 mph (WSW)    
Max Wind Speed 23 mph    
Max Gust Speed 40 mph    
Visibility 6 miles    
Events Rain , Snow    
Averages and records for this station are not official NWS values.
T = Trace of Precipitation, MM = Missing Value Source: NWS Daily Summary

Daily Weather History Graph

Daily Weather History Graph

Search for Another Location

Airport:

Trip Planner

Search our weather history database for the weather conditions in past years. The results will help you decide how hot, cold, wet, or windy it might be!

Date:

Astronomy

Mar. 20, 2014 Rise Set
Actual Time 7:06 AM EDT 7:15 PM EDT
Civil Twilight 6:37 AM EDT 7:44 PM EDT
Nautical Twilight 6:03 AM EDT 8:17 PM EDT
Astronomical Twilight 5:29 AM EDT 8:52 PM EDT
Moon 11:41 PM EDT (3/20) 9:02 AM EDT (3/20)
Length of Visible Light 13h 06m
Length of Day
12h 09m
Waning Gibbous, 84% of the Moon is Illuminated
Mar 20
Waning Gibbous
Mar 23
Last Quarter
Mar 30
New
Apr 7
First Quarter
Apr 15
Full

Hourly Weather History & Observations

Time (EDT) Temp. Windchill Dew Point Humidity Pressure Visibility Wind Dir Wind Speed Gust Speed Precip Events Conditions
12:21 AM 33.8 °F 22.5 °F 33.8 °F 100% 29.66 in 10.0 mi SSE 19.6 mph - N/A   Overcast
12:31 AM 33.8 °F 22.2 °F 33.8 °F 100% 29.66 in 10.0 mi SSE 20.7 mph - N/A   Overcast
12:41 AM 33.8 °F 22.8 °F 33.8 °F 100% 29.65 in 10.0 mi SSE 18.4 mph - N/A   Overcast
12:46 AM 33.8 °F 22.5 °F 33.8 °F 100% 29.65 in 10.0 mi SSE 19.6 mph 26.5 mph N/A   Overcast
12:58 AM 34.7 °F 23.7 °F 34.3 °F 99% 29.66 in 10.0 mi SSE 19.6 mph - 0.01 in   Overcast
1:00 AM 35.6 °F 25.2 °F 33.8 °F 93% 29.64 in 10.0 mi SSE 18.4 mph - N/A Rain Light Rain
1:06 AM 35.6 °F 25.2 °F 33.8 °F 93% 29.64 in 10.0 mi SSE 18.4 mph - N/A Rain Light Rain
1:31 AM 35.6 °F 25.5 °F 33.8 °F 93% 29.63 in 10.0 mi SSE 17.3 mph - N/A   Light Drizzle
1:58 AM 35.1 °F 24.5 °F 34.9 °F 99% 29.64 in 10.0 mi SSE 18.4 mph - 0.01 in Rain Light Rain
2:03 AM 35.6 °F 24.8 °F 35.6 °F 100% 29.62 in 10.0 mi SSE 19.6 mph - N/A   Overcast
2:58 AM 36.0 °F 26.7 °F 35.8 °F 99% 29.62 in 10.0 mi SSE 15.0 mph - 0.00 in   Overcast
3:22 AM 37.4 °F 29.3 °F 35.6 °F 93% 29.60 in 10.0 mi SSE 12.7 mph - N/A   Light Drizzle
3:31 AM 35.6 °F 28.6 °F 35.6 °F 100% 29.60 in 10.0 mi South 9.2 mph - N/A   Overcast
3:58 AM 38.5 °F 29.2 °F 37.9 °F 98% 29.61 in 10.0 mi South 17.3 mph - 0.00 in   Overcast
4:50 AM 41.0 °F 33.1 °F 39.2 °F 93% 29.59 in 9.0 mi SSW 15.0 mph 23.0 mph N/A   Light Drizzle
4:58 AM 40.3 °F 31.9 °F 38.7 °F 94% 29.61 in 6.0 mi SW 16.1 mph 25.3 mph 0.00 in   Overcast
5:03 AM 39.2 °F 31.6 °F 39.2 °F 100% 29.60 in 5.0 mi SW 12.7 mph 25.3 mph N/A   Overcast
5:08 AM 39.2 °F 31.6 °F 39.2 °F 100% 29.60 in 5.0 mi SW 12.7 mph - N/A   Light Drizzle
5:13 AM 39.2 °F 31.6 °F 39.2 °F 100% 29.60 in 4.0 mi SW 12.7 mph 19.6 mph N/A   Light Drizzle
5:23 AM 39.2 °F 30.2 °F 39.2 °F 100% 29.60 in 4.0 mi SW 17.3 mph 23.0 mph N/A   Light Drizzle
5:53 AM 37.4 °F 26.4 °F 37.4 °F 100% 29.62 in 5.0 mi WSW 23.0 mph 31.1 mph N/A   Overcast
5:58 AM 37.2 °F 27.6 °F 37.2 °F 100% 29.64 in 5.0 mi WSW 17.3 mph 31.1 mph 0.01 in Rain Light Rain
6:03 AM 35.6 °F 24.5 °F 35.6 °F 100% 29.62 in 5.0 mi WSW 20.7 mph 31.1 mph N/A Rain Light Rain
6:58 AM 34.0 °F 24.2 °F 34.0 °F 100% 29.66 in 7.0 mi WSW 15.0 mph 27.6 mph 0.03 in Snow Light Snow
7:43 AM 32.0 °F 20.5 °F 32.0 °F 100% 29.65 in 2.5 mi WSW 18.4 mph 32.2 mph N/A Snow Light Snow
7:53 AM 32.0 °F 20.8 °F 32.0 °F 100% 29.65 in 3.0 mi WSW 17.3 mph 29.9 mph N/A Snow Light Snow
7:58 AM 33.1 °F 21.9 °F 33.1 °F 100% 29.68 in 3.0 mi SW 18.4 mph 36.8 mph 0.01 in Snow Light Snow
8:13 AM 32.0 °F 20.1 °F 32.0 °F 100% 29.65 in 6.0 mi WSW 19.6 mph 31.1 mph N/A Snow Light Snow
8:38 AM 32.0 °F 19.8 °F 32.0 °F 100% 29.65 in 9.0 mi WSW 20.7 mph 26.5 mph N/A Snow Light Snow
8:58 AM 32.9 °F 22.0 °F 32.7 °F 99% 29.68 in 10.0 mi WSW 17.3 mph 26.5 mph 0.00 in Rain Light Rain
9:04 AM 32.0 °F 22.5 °F 32.0 °F 100% 29.65 in 10.0 mi WSW 12.7 mph 25.3 mph N/A   Overcast
9:13 AM 32.0 °F 20.8 °F 32.0 °F 100% 29.65 in 10.0 mi WSW 17.3 mph 25.3 mph N/A   Light Drizzle
9:27 AM 32.0 °F 20.5 °F 32.0 °F 100% 29.65 in 10.0 mi WSW 18.4 mph 26.5 mph N/A   Overcast
9:58 AM 33.4 °F 22.7 °F 30.2 °F 88% 29.68 in 10.0 mi WSW 17.3 mph 25.3 mph 0.01 in   Overcast
10:03 AM 32.0 °F 21.2 °F 30.2 °F 93% 29.65 in 10.0 mi WSW 16.1 mph 25.3 mph N/A   Overcast
10:42 AM 33.8 °F 24.3 °F 28.4 °F 81% 29.66 in 10.0 mi WSW 13.8 mph 27.6 mph N/A   Overcast
10:58 AM 33.6 °F 22.6 °F 29.8 °F 86% 29.68 in 10.0 mi WSW 18.4 mph 31.1 mph 0.00 in   Light Drizzle
11:03 AM 32.0 °F 20.1 °F 30.2 °F 93% 29.65 in 10.0 mi WSW 19.6 mph 32.2 mph N/A   Overcast
11:29 AM 32.0 °F 20.5 °F 30.2 °F 93% 29.65 in 10.0 mi WSW 18.4 mph 29.9 mph N/A   Light Drizzle
11:44 AM 32.0 °F 19.8 °F 30.2 °F 93% 29.65 in 10.0 mi WSW 20.7 mph 28.8 mph N/A   Light Drizzle
11:58 AM 33.6 °F 22.9 °F 30.0 °F 87% 29.66 in 10.0 mi WSW 17.3 mph 27.6 mph 0.00 in   Light Drizzle
12:10 PM 33.8 °F 22.8 °F 30.2 °F 87% 29.64 in 10.0 mi WSW 18.4 mph 28.8 mph N/A   Overcast
12:40 PM 33.8 °F 22.8 °F 30.2 °F 87% 29.64 in 10.0 mi WSW 18.4 mph 38.0 mph N/A   Overcast
12:58 PM 34.2 °F 22.6 °F 30.0 °F 85% 29.66 in 10.0 mi WSW 20.7 mph 40.3 mph 0.00 in   Overcast
1:08 PM 32.0 °F 19.5 °F 30.2 °F 93% 29.64 in 10.0 mi WSW 21.9 mph 31.1 mph N/A   Overcast
1:19 PM 32.0 °F 21.2 °F 30.2 °F 93% 29.64 in 10.0 mi WSW 16.1 mph 32.2 mph N/A   Overcast
1:38 PM 32.0 °F 19.2 °F 30.2 °F 93% 29.64 in 10.0 mi West 23.0 mph 33.4 mph N/A Rain Light Rain
1:58 PM 33.4 °F 22.7 °F 30.2 °F 88% 29.66 in 10.0 mi WSW 17.3 mph 27.6 mph 0.00 in   Overcast
2:58 PM 33.1 °F 20.6 °F 31.1 °F 92% 29.68 in 3.0 mi WSW 23.0 mph 31.1 mph 0.00 in Snow Light Snow
3:13 PM 32.0 °F 20.5 °F 32.0 °F 100% 29.64 in 2.5 mi WSW 18.4 mph 26.5 mph N/A Snow Light Snow
3:23 PM 32.0 °F 20.5 °F 32.0 °F 100% 29.64 in 1.8 mi WSW 18.4 mph 34.5 mph N/A Snow Light Snow
3:28 PM 32.0 °F 20.8 °F 32.0 °F 100% 29.65 in 2.5 mi WSW 17.3 mph 34.5 mph N/A Snow Light Snow
3:33 PM 32.0 °F 21.2 °F 32.0 °F 100% 29.65 in 5.0 mi WSW 16.1 mph 33.4 mph N/A Snow Light Snow
3:53 PM 32.0 °F 20.1 °F 32.0 °F 100% 29.64 in 4.0 mi WSW 19.6 mph 33.4 mph N/A Snow Light Snow
3:58 PM 32.5 °F 20.5 °F 31.3 °F 95% 29.67 in 7.0 mi WSW 20.7 mph 33.4 mph 0.00 in Snow Light Snow
4:08 PM 32.0 °F 20.8 °F 32.0 °F 100% 29.65 in 10.0 mi West 17.3 mph 33.4 mph N/A Rain Light Rain
4:28 PM 32.0 °F 20.1 °F 32.0 °F 100% 29.65 in 2.5 mi WSW 19.6 mph 32.2 mph N/A Snow Light Snow
4:33 PM 32.0 °F 20.5 °F 32.0 °F 100% 29.65 in 4.0 mi WSW 18.4 mph 31.1 mph N/A Snow Light Snow
4:48 PM 32.0 °F 20.5 °F 32.0 °F 100% 29.66 in 2.5 mi WSW 18.4 mph 35.7 mph N/A Snow Light Snow
4:58 PM 32.0 °F 19.2 °F 32.0 °F 100% 29.68 in 2.0 mi WSW 23.0 mph 31.1 mph 0.00 in Snow Light Snow
5:03 PM 32.0 °F 20.1 °F 32.0 °F 100% 29.66 in 1.5 mi West 19.6 mph 31.1 mph N/A Snow Light Snow
5:18 PM 32.0 °F 21.6 °F 32.0 °F 100% 29.67 in 1.0 mi WSW 15.0 mph 32.2 mph N/A Snow Light Snow
5:38 PM 32.0 °F 21.2 °F 32.0 °F 100% 29.67 in 1.2 mi West 16.1 mph 25.3 mph N/A Snow Light Snow
5:48 PM 32.0 °F 20.1 °F 32.0 °F 100% 29.67 in 1.0 mi WSW 19.6 mph 26.5 mph N/A Snow Light Snow
5:58 PM 32.0 °F 19.8 °F 32.0 °F 100% 29.70 in 1.5 mi West 20.7 mph 28.8 mph 0.00 in Snow Light Snow
6:08 PM 32.0 °F 21.2 °F 32.0 °F 100% 29.68 in 2.5 mi West 16.1 mph 35.7 mph N/A Snow Light Snow
6:18 PM 32.0 °F 21.2 °F 32.0 °F 100% 29.69 in 1.5 mi WSW 16.1 mph 33.4 mph N/A Snow Light Snow
6:23 PM 32.0 °F 20.1 °F 32.0 °F 100% 29.69 in 0.8 mi WSW 19.6 mph 29.9 mph N/A Snow Light Snow
6:33 PM 32.0 °F 20.8 °F 32.0 °F 100% 29.69 in 1.0 mi WSW 17.3 mph 31.1 mph N/A Snow Light Snow
6:38 PM 32.0 °F 20.1 °F 32.0 °F 100% 29.69 in 1.5 mi West 19.6 mph 31.1 mph N/A Snow Light Snow
6:48 PM 32.0 °F 21.2 °F 32.0 °F 100% 29.70 in 2.5 mi West 16.1 mph 29.9 mph N/A Snow Light Snow
6:53 PM 32.0 °F 21.2 °F 32.0 °F 100% 29.70 in 3.0 mi West 16.1 mph 29.9 mph N/A Snow Light Snow
6:58 PM 32.0 °F 20.1 °F 32.0 °F 100% 29.73 in 3.0 mi West 19.6 mph 25.3 mph 0.00 in Snow Light Snow
7:48 PM 32.0 °F 20.5 °F 32.0 °F 100% 29.72 in 2.5 mi WSW 18.4 mph 28.8 mph N/A Snow Light Snow
7:58 PM 32.0 °F 20.5 °F 30.2 °F 93% 29.75 in 2.5 mi West 18.4 mph 28.8 mph 0.00 in Snow Light Snow
8:03 PM 32.0 °F 21.2 °F 30.2 °F 93% 29.72 in 4.0 mi WSW 16.1 mph 28.8 mph N/A Snow Light Snow
8:58 PM 32.0 °F 21.6 °F 30.2 °F 93% 29.78 in 10.0 mi West 15.0 mph 24.2 mph 0.00 in Snow Light Snow
9:08 PM 32.0 °F 20.8 °F 30.2 °F 93% 29.75 in 4.0 mi West 17.3 mph 27.6 mph N/A Snow Light Snow
9:48 PM 30.2 °F 20.2 °F 30.2 °F 100% 29.76 in 2.5 mi West 12.7 mph 24.2 mph N/A Snow Light Snow
9:53 PM 30.2 °F 20.2 °F 30.2 °F 100% 29.76 in 3.0 mi West 12.7 mph 23.0 mph N/A Snow Light Snow
9:58 PM 30.2 °F 19.3 °F 30.2 °F 100% 29.79 in 2.5 mi WSW 15.0 mph 28.8 mph 0.00 in Snow Light Snow
10:03 PM 30.2 °F 18.1 °F 30.2 °F 100% 29.76 in 3.0 mi West 18.4 mph 28.8 mph N/A Snow Light Snow
10:28 PM 30.2 °F 20.2 °F 30.2 °F 100% 29.77 in 3.0 mi West 12.7 mph 26.5 mph N/A Snow Light Snow
10:33 PM 30.2 °F 19.8 °F 28.4 °F 93% 29.77 in 2.5 mi West 13.8 mph 26.5 mph N/A Snow Light Snow
10:43 PM 30.2 °F 20.8 °F 28.4 °F 93% 29.77 in 1.5 mi West 11.5 mph 23.0 mph N/A Snow Light Snow
10:58 PM 29.1 °F 18.4 °F 28.9 °F 99% 29.80 in 1.8 mi WSW 13.8 mph 25.3 mph 0.00 in Snow Light Snow
11:03 PM 28.4 °F 17.5 °F 28.4 °F 100% 29.77 in 2.0 mi WSW 13.8 mph 25.3 mph N/A Snow Light Snow
11:23 PM 28.4 °F 18.0 °F 28.4 °F 100% 29.78 in 1.8 mi West 12.7 mph 26.5 mph N/A Snow Light Snow
11:28 PM 28.4 °F 17.0 °F 28.4 °F 100% 29.78 in 2.0 mi WSW 15.0 mph 26.5 mph N/A Snow Light Snow
11:43 PM 28.4 °F 17.0 °F 28.4 °F 100% 29.78 in 1.8 mi West 15.0 mph 21.9 mph N/A Snow Light Snow
11:58 PM 28.4 °F 17.0 °F 28.4 °F 100% 29.81 in 1.5 mi West 15.0 mph 23.0 mph 0.00 in Snow Light Snow